Time,TemperatureF,DewpointF,PressureIn,WindDirection,WindDirectionDegrees,WindSpeedMPH,WindSpeedGustMPH,Humidity,HourlyPrecipIn,Conditions,Clouds,dailyrainin,SoftwareType,DateUTC
2013-08-19 00:04:00,52.5,47.8,29.78,SSW,202,7.0,13.0,84,0.00,,,0.04,meteohub,2013-08-18 23:04:00,
2013-08-19 00:10:00,52.3,47.7,29.78,WSW,247,6.0,11.0,84,0.00,,,0.00,meteohub,2013-08-18 23:10:00,
2013-08-19 00:15:00,52.2,47.5,29.78,SW,225,4.0,11.0,84,0.00,,,0.00,meteohub,2013-08-18 23:15:00,
2013-08-19 00:20:00,52.2,47.8,29.78,SSW,202,7.0,10.0,85,0.00,,,0.00,meteohub,2013-08-18 23:20:00,
2013-08-19 00:25:00,52.0,47.7,29.78,SW,225,5.0,9.0,85,0.00,,,0.00,meteohub,2013-08-18 23:25:00,
2013-08-19 00:30:00,52.0,47.7,29.78,SW,225,4.0,9.0,85,0.00,,,0.00,meteohub,2013-08-18 23:30:00,
2013-08-19 00:35:00,51.8,47.5,29.78,West,270,4.0,9.0,85,0.00,,,0.00,meteohub,2013-08-18 23:35:00,
2013-08-19 00:40:00,51.8,47.5,29.78,West,270,5.0,7.0,85,0.00,,,0.00,meteohub,2013-08-18 23:40:00,
2013-08-19 00:45:00,51.6,47.5,29.78,WSW,247,5.0,6.0,86,0.00,,,0.00,meteohub,2013-08-18 23:45:00,
2013-08-19 00:50:00,51.6,47.5,29.78,SW,225,4.0,9.0,86,0.00,,,0.00,meteohub,2013-08-18 23:50:00,
2013-08-19 00:55:00,51.4,47.7,29.78,SSW,202,3.0,9.0,87,0.00,,,0.00,meteohub,2013-08-18 23:55:00,
2013-08-19 01:00:00,51.3,47.5,29.78,SW,225,6.0,9.0,87,0.00,,,0.00,meteohub,2013-08-19 00:00:00,
2013-08-19 01:06:00,51.3,47.5,29.78,SSW,202,4.0,7.0,87,0.00,,,0.00,meteohub,2013-08-19 00:06:00,
2013-08-19 01:11:00,51.1,47.7,29.81,NNW,337,2.0,7.0,88,0.00,,,0.00,meteohub,2013-08-19 00:11:00,
2013-08-19 01:16:00,51.3,47.8,29.81,NW,315,4.0,7.0,88,0.00,,,0.00,meteohub,2013-08-19 00:16:00,
2013-08-19 01:21:00,51.3,48.2,29.81,SSW,202,2.0,6.0,89,0.00,,,0.00,meteohub,2013-08-19 00:21:00,
2013-08-19 01:26:00,51.4,48.6,29.81,WSW,247,3.0,6.0,90,0.00,,,0.00,meteohub,2013-08-19 00:26:00,
2013-08-19 01:31:00,51.6,48.7,29.81,SSW,202,2.0,8.0,90,0.00,,,0.00,meteohub,2013-08-19 00:31:00,
2013-08-19 01:36:00,51.8,48.7,29.81,West,270,6.0,8.0,89,0.00,,,0.00,meteohub,2013-08-19 00:36:00,
2013-08-19 01:41:00,52.0,49.1,29.81,SW,225,1.0,8.0,90,0.00,,,0.00,meteohub,2013-08-19 00:41:00,
2013-08-19 01:46:00,52.0,49.1,29.81,WSW,247,2.0,8.0,90,0.00,,,0.00,meteohub,2013-08-19 00:46:00,
2013-08-19 01:51:00,52.2,49.3,29.81,WSW,247,4.0,6.0,90,0.00,,,0.00,meteohub,2013-08-19 00:51:00,
2013-08-19 01:56:00,52.3,49.5,29.81,SW,225,4.0,6.0,90,0.00,,,0.00,meteohub,2013-08-19 00:56:00,
2013-08-19 02:02:00,52.3,49.5,29.81,SSW,202,3.0,6.0,90,0.00,,,0.00,meteohub,2013-08-19 01:02:00,
2013-08-19 02:07:00,52.3,49.5,29.81,SW,225,1.0,6.0,90,0.00,,,0.00,meteohub,2013-08-19 01:07:00,
2013-08-19 02:12:00,52.5,49.6,29.81,SW,225,4.0,6.0,90,0.00,,,0.00,meteohub,2013-08-19 01:12:00,
2013-08-19 02:17:00,52.5,49.6,29.81,SW,225,2.0,6.0,90,0.00,,,0.00,meteohub,2013-08-19 01:17:00,
2013-08-19 02:22:00,52.3,49.5,29.81,SW,225,2.0,6.0,90,0.00,,,0.00,meteohub,2013-08-19 01:22:00,
2013-08-19 02:27:00,52.3,49.5,29.81,WSW,247,1.0,5.0,90,0.00,,,0.00,meteohub,2013-08-19 01:27:00,
2013-08-19 02:32:00,52.3,49.5,29.81,NW,315,2.0,6.0,90,0.00,,,0.00,meteohub,2013-08-19 01:32:00,
2013-08-19 02:37:00,52.3,49.5,29.81,WSW,247,3.0,7.0,90,0.00,,,0.00,meteohub,2013-08-19 01:37:00,
2013-08-19 02:42:00,52.3,49.5,29.81,SSW,202,1.0,7.0,90,0.00,,,0.00,meteohub,2013-08-19 01:42:00,
2013-08-19 02:47:00,52.2,49.1,29.81,SW,225,6.0,7.0,89,0.00,,,0.00,meteohub,2013-08-19 01:47:00,
2013-08-19 02:52:00,52.0,48.9,29.83,South,180,4.0,7.0,89,0.00,,,0.00,meteohub,2013-08-19 01:52:00,
2013-08-19 02:57:00,51.8,48.7,29.83,WSW,247,6.0,7.0,89,0.00,,,0.00,meteohub,2013-08-19 01:57:00,
2013-08-19 03:02:00,51.6,48.7,29.83,SSW,202,9.0,9.0,90,0.00,,,0.00,meteohub,2013-08-19 02:02:00,
2013-08-19 03:08:00,51.6,48.7,29.83,SW,225,9.0,11.0,90,0.00,,,0.00,meteohub,2013-08-19 02:08:00,
2013-08-19 03:13:00,51.4,48.6,29.83,SW,225,6.0,12.0,90,0.00,,,0.00,meteohub,2013-08-19 02:13:00,
2013-08-19 03:18:00,51.4,48.9,29.83,SW,225,3.0,12.0,91,0.00,,,0.00,meteohub,2013-08-19 02:18:00,
2013-08-19 03:23:00,51.6,49.1,29.83,SSW,202,8.0,12.0,91,0.00,,,0.00,meteohub,2013-08-19 02:23:00,
2013-08-19 03:28:00,51.6,49.1,29.83,WSW,247,8.0,10.0,91,0.00,,,0.00,meteohub,2013-08-19 02:28:00,
2013-08-19 03:33:00,51.6,49.1,29.83,SW,225,4.0,9.0,91,0.00,,,0.00,meteohub,2013-08-19 02:33:00,
2013-08-19 03:38:00,51.8,49.3,29.83,SW,225,7.0,9.0,91,0.00,,,0.00,meteohub,2013-08-19 02:38:00,
2013-08-19 03:43:00,51.8,49.3,29.83,SW,225,3.0,11.0,91,0.00,,,0.00,meteohub,2013-08-19 02:43:00,
2013-08-19 03:48:00,52.0,49.5,29.83,WSW,247,2.0,11.0,91,0.00,,,0.00,meteohub,2013-08-19 02:48:00,
2013-08-19 03:53:00,52.0,49.5,29.83,WSW,247,4.0,11.0,91,0.00,,,0.00,meteohub,2013-08-19 02:53:00,
2013-08-19 03:59:00,52.0,49.5,29.83,SW,225,7.0,11.0,91,0.00,,,0.00,meteohub,2013-08-19 02:59:00,
2013-08-19 04:04:00,52.2,49.6,29.83,SW,225,2.0,11.0,91,0.00,,,0.00,meteohub,2013-08-19 03:04:00,
2013-08-19 04:09:00,52.2,49.3,29.83,NW,315,7.0,11.0,90,0.00,,,0.00,meteohub,2013-08-19 03:09:00,
2013-08-19 04:14:00,52.2,49.3,29.83,West,270,7.0,10.0,90,0.00,,,0.00,meteohub,2013-08-19 03:14:00,
2013-08-19 04:19:00,52.3,49.5,29.83,NNW,337,4.0,10.0,90,0.00,,,0.00,meteohub,2013-08-19 03:19:00,
2013-08-19 04:24:00,52.3,49.5,29.83,WSW,247,4.0,9.0,90,0.00,,,0.00,meteohub,2013-08-19 03:24:00,
2013-08-19 04:29:00,52.3,49.5,29.83,WNW,292,4.0,9.0,90,0.00,,,0.00,meteohub,2013-08-19 03:29:00,
2013-08-19 04:34:00,52.5,49.6,29.83,NW,315,4.0,9.0,90,0.00,,,0.00,meteohub,2013-08-19 03:34:00,
2013-08-19 04:39:00,52.5,49.6,29.83,WSW,247,2.0,6.0,90,0.00,,,0.00,meteohub,2013-08-19 03:39:00,
2013-08-19 04:44:00,52.5,49.6,29.83,WSW,247,4.0,6.0,90,0.00,,,0.00,meteohub,2013-08-19 03:44:00,
2013-08-19 04:49:00,52.3,49.5,29.83,SW,225,3.0,6.0,90,0.00,,,0.00,meteohub,2013-08-19 03:49:00,
2013-08-19 04:55:00,52.3,49.8,29.83,SW,225,6.0,7.0,91,0.00,,,0.00,meteohub,2013-08-19 03:55:00,
2013-08-19 05:00:00,52.3,49.8,29.83,SSW,202,3.0,10.0,91,0.00,,,0.00,meteohub,2013-08-19 04:00:00,
2013-08-19 05:01:00,52.3,49.8,29.83,SW,225,3.0,10.0,91,0.00,,,0.00,meteohub,2013-08-19 04:01:00,
2013-08-19 05:02:00,52.3,49.8,29.83,West,270,5.0,10.0,91,0.00,,,0.00,meteohub,2013-08-19 04:02:00,
2013-08-19 05:03:00,52.3,49.8,29.83,SW,225,4.0,10.0,91,0.00,,,0.00,meteohub,2013-08-19 04:03:00,
2013-08-19 05:08:00,52.5,50.0,29.83,WSW,247,6.0,10.0,91,0.00,,,0.00,meteohub,2013-08-19 04:08:00,
2013-08-19 05:13:00,52.5,50.0,29.83,WSW,247,5.0,8.0,91,0.00,,,0.00,meteohub,2013-08-19 04:13:00,
2013-08-19 05:18:00,52.5,50.0,29.83,South,180,3.0,8.0,91,0.00,,,0.00,meteohub,2013-08-19 04:18:00,
2013-08-19 05:23:00,52.7,50.2,29.83,SW,225,6.0,9.0,91,0.00,,,0.00,meteohub,2013-08-19 04:23:00,
2013-08-19 05:28:00,52.7,50.2,29.83,SW,225,7.0,9.0,91,0.00,,,0.00,meteohub,2013-08-19 04:28:00,
2013-08-19 05:33:00,52.7,50.2,29.83,WNW,292,3.0,10.0,91,0.00,,,0.00,meteohub,2013-08-19 04:33:00,
2013-08-19 05:38:00,52.7,50.2,29.83,WSW,247,6.0,12.0,91,0.00,,,0.00,meteohub,2013-08-19 04:38:00,
2013-08-19 05:43:00,52.7,50.2,29.83,SSW,202,9.0,12.0,91,0.00,,,0.00,meteohub,2013-08-19 04:43:00,
2013-08-19 05:48:00,52.7,50.2,29.83,SW,225,13.0,16.0,91,0.00,,,0.00,meteohub,2013-08-19 04:48:00,
2013-08-19 05:54:00,52.5,50.0,29.83,SW,225,12.0,16.0,91,0.00,,,0.00,meteohub,2013-08-19 04:54:00,
2013-08-19 05:59:00,52.5,50.0,29.83,SW,225,10.0,16.0,91,0.00,,,0.00,meteohub,2013-08-19 04:59:00,
2013-08-19 06:04:00,52.3,49.8,29.83,SSW,202,11.0,13.0,91,0.00,,,0.00,meteohub,2013-08-19 05:04:00,
2013-08-19 06:09:00,52.3,49.8,29.86,WSW,247,6.0,13.0,91,0.00,,,0.00,meteohub,2013-08-19 05:09:00,
2013-08-19 06:14:00,52.2,49.6,29.86,SW,225,5.0,13.0,91,0.00,,,0.00,meteohub,2013-08-19 05:14:00,
2013-08-19 06:19:00,52.2,49.6,29.86,SW,225,3.0,13.0,91,0.00,,,0.00,meteohub,2013-08-19 05:19:00,
2013-08-19 06:24:00,52.2,49.6,29.86,SW,225,5.0,11.0,91,0.00,,,0.00,meteohub,2013-08-19 05:24:00,
2013-08-19 06:29:00,52.2,49.6,29.86,SW,225,4.0,10.0,91,0.00,,,0.00,meteohub,2013-08-19 05:29:00,
2013-08-19 06:34:00,52.3,50.0,29.86,WSW,247,3.0,10.0,92,0.00,,,0.00,meteohub,2013-08-19 05:34:00,
2013-08-19 06:39:00,52.3,50.0,29.86,WNW,292,8.0,8.0,92,0.00,,,0.00,meteohub,2013-08-19 05:39:00,
2013-08-19 06:44:00,52.5,50.2,29.86,SW,225,2.0,9.0,92,0.00,,,0.00,meteohub,2013-08-19 05:44:00,
2013-08-19 06:49:00,52.7,50.4,29.86,SW,225,5.0,9.0,92,0.00,,,0.00,meteohub,2013-08-19 05:49:00,
2013-08-19 06:54:00,52.7,50.4,29.86,NW,315,2.0,9.0,92,0.00,,,0.00,meteohub,2013-08-19 05:54:00,
2013-08-19 07:00:00,52.9,50.5,29.86,WSW,247,4.0,10.0,92,0.00,,,0.00,meteohub,2013-08-19 06:00:00,
2013-08-19 07:05:00,52.9,50.5,29.86,West,270,3.0,10.0,92,0.00,,,0.00,meteohub,2013-08-19 06:05:00,
2013-08-19 07:10:00,52.9,50.4,29.86,WSW,247,3.0,10.0,91,0.00,,,0.00,meteohub,2013-08-19 06:10:00,
2013-08-19 07:15:00,52.9,50.4,29.86,WSW,247,2.0,10.0,91,0.00,,,0.00,meteohub,2013-08-19 06:15:00,
2013-08-19 07:20:00,52.9,50.4,29.86,WSW,247,2.0,7.0,91,0.00,,,0.00,meteohub,2013-08-19 06:20:00,
2013-08-19 07:25:00,53.1,50.5,29.86,SW,225,5.0,10.0,91,0.00,,,0.00,meteohub,2013-08-19 06:25:00,
2013-08-19 07:30:00,53.1,50.5,29.86,WNW,292,11.0,11.0,91,0.00,,,0.00,meteohub,2013-08-19 06:30:00,
2013-08-19 07:35:00,53.2,50.9,29.86,West,270,7.0,11.0,92,0.00,,,0.00,meteohub,2013-08-19 06:35:00,
2013-08-19 07:40:00,53.4,50.9,29.86,West,270,6.0,11.0,91,0.00,,,0.00,meteohub,2013-08-19 06:40:00,
2013-08-19 07:45:00,53.6,51.1,29.86,WSW,247,8.0,12.0,91,0.00,,,0.00,meteohub,2013-08-19 06:45:00,
2013-08-19 07:50:00,54.0,51.4,29.86,WSW,247,5.0,12.0,91,0.00,,,0.00,meteohub,2013-08-19 06:50:00,
2013-08-19 07:55:00,54.3,51.8,29.89,WSW,247,6.0,12.0,91,0.00,,,0.00,meteohub,2013-08-19 06:55:00,
2013-08-19 08:01:00,54.7,52.2,29.89,WSW,247,6.0,12.0,91,0.00,,,0.00,meteohub,2013-08-19 07:01:00,
2013-08-19 08:06:00,55.0,52.5,29.89,WSW,247,5.0,12.0,91,0.00,,,0.00,meteohub,2013-08-19 07:06:00,
2013-08-19 08:11:00,55.2,52.7,29.89,SW,225,6.0,10.0,91,0.00,,,0.00,meteohub,2013-08-19 07:11:00,
2013-08-19 08:16:00,55.4,52.5,29.89,SW,225,6.0,10.0,90,0.00,,,0.00,meteohub,2013-08-19 07:16:00,
2013-08-19 08:21:00,55.8,52.9,29.89,WNW,292,8.0,10.0,90,0.00,,,0.00,meteohub,2013-08-19 07:21:00,
2013-08-19 08:26:00,55.9,53.1,29.89,WSW,247,11.0,11.0,90,0.00,,,0.00,meteohub,2013-08-19 07:26:00,
2013-08-19 08:31:00,56.1,52.9,29.89,WSW,247,3.0,11.0,89,0.00,,,0.00,meteohub,2013-08-19 07:31:00,
2013-08-19 08:36:00,56.3,53.1,29.89,WSW,247,5.0,11.0,89,0.00,,,0.00,meteohub,2013-08-19 07:36:00,
2013-08-19 08:41:00,56.3,52.9,29.89,SW,225,3.0,13.0,88,0.00,,,0.00,meteohub,2013-08-19 07:41:00,
2013-08-19 08:46:00,56.5,52.9,29.89,WSW,247,12.0,13.0,88,0.00,,,0.00,meteohub,2013-08-19 07:46:00,
2013-08-19 08:51:00,56.5,52.7,29.89,WSW,247,7.0,15.0,87,0.00,,,0.00,meteohub,2013-08-19 07:51:00,
2013-08-19 08:56:00,56.7,52.9,29.89,WNW,292,11.0,15.0,87,0.00,,,0.00,meteohub,2013-08-19 07:56:00,
2013-08-19 09:02:00,56.8,53.1,29.89,SW,225,6.0,15.0,87,0.00,,,0.00,meteohub,2013-08-19 08:02:00,
2013-08-19 09:07:00,57.0,53.2,29.92,NW,315,4.0,13.0,87,0.00,,,0.00,meteohub,2013-08-19 08:07:00,
2013-08-19 09:12:00,57.4,53.6,29.92,NW,315,4.0,13.0,87,0.00,,,0.00,meteohub,2013-08-19 08:12:00,
2013-08-19 09:17:00,57.7,54.0,29.92,WSW,247,11.0,18.0,87,0.00,,,0.00,meteohub,2013-08-19 08:17:00,
2013-08-19 09:22:00,58.5,54.7,29.92,SSW,202,4.0,18.0,87,0.00,,,0.00,meteohub,2013-08-19 08:22:00,
2013-08-19 09:27:00,58.6,54.5,29.92,SSW,202,8.0,18.0,86,0.00,,,0.00,meteohub,2013-08-19 08:27:00,
2013-08-19 09:32:00,58.5,54.0,29.92,WSW,247,10.0,15.0,85,0.00,,,0.00,meteohub,2013-08-19 08:32:00,
2013-08-19 09:37:00,58.6,54.1,29.92,WSW,247,9.0,13.0,85,0.00,,,0.00,meteohub,2013-08-19 08:37:00,
2013-08-19 09:42:00,59.2,54.7,29.92,WSW,247,10.0,14.0,85,0.00,,,0.00,meteohub,2013-08-19 08:42:00,
2013-08-19 09:47:00,59.4,54.5,29.92,WSW,247,6.0,15.0,84,0.00,,,0.00,meteohub,2013-08-19 08:47:00,
2013-08-19 09:52:00,59.4,54.1,29.92,WSW,247,6.0,15.0,83,0.00,,,0.00,meteohub,2013-08-19 08:52:00,
2013-08-19 09:57:00,59.4,54.1,29.92,WSW,247,4.0,15.0,83,0.00,,,0.00,meteohub,2013-08-19 08:57:00,
2013-08-19 10:02:00,59.5,54.0,29.92,WNW,292,7.0,13.0,82,0.00,,,0.00,meteohub,2013-08-19 09:02:00,
2013-08-19 10:07:00,59.5,54.0,29.92,SW,225,12.0,13.0,82,0.00,,,0.00,meteohub,2013-08-19 09:07:00,
2013-08-19 10:12:00,59.5,54.0,29.92,West,270,4.0,13.0,82,0.00,,,0.00,meteohub,2013-08-19 09:12:00,
2013-08-19 10:17:00,59.5,53.8,29.92,SSW,202,6.0,15.0,81,0.00,,,0.00,meteohub,2013-08-19 09:17:00,
2013-08-19 10:22:00,59.9,54.3,29.92,WSW,247,6.0,15.0,82,0.00,,,0.00,meteohub,2013-08-19 09:22:00,
2013-08-19 10:28:00,60.1,54.5,29.92,SSE,157,7.0,16.0,82,0.00,,,0.00,meteohub,2013-08-19 09:28:00,
2013-08-19 10:33:00,60.1,54.3,29.92,NW,315,7.0,16.0,81,0.00,,,0.00,meteohub,2013-08-19 09:33:00,
2013-08-19 10:38:00,60.3,54.3,29.92,WSW,247,6.0,16.0,81,0.00,,,0.00,meteohub,2013-08-19 09:38:00,
2013-08-19 10:43:00,60.6,54.5,29.92,SSW,202,6.0,13.0,80,0.00,,,0.00,meteohub,2013-08-19 09:43:00,
2013-08-19 10:48:00,60.8,54.3,29.92,SW,225,12.0,13.0,79,0.00,,,0.00,meteohub,2013-08-19 09:48:00,
2013-08-19 10:53:00,61.2,54.7,29.92,SW,225,4.0,16.0,79,0.00,,,0.00,meteohub,2013-08-19 09:53:00,
2013-08-19 10:58:00,61.3,54.9,29.92,SW,225,11.0,16.0,79,0.00,,,0.00,meteohub,2013-08-19 09:58:00,
2013-08-19 11:03:00,61.2,54.0,29.92,West,270,6.0,16.0,77,0.00,,,0.00,meteohub,2013-08-19 10:03:00,
2013-08-19 11:08:00,61.7,54.9,29.95,West,270,10.0,15.0,78,0.00,,,0.00,meteohub,2013-08-19 10:08:00,
2013-08-19 11:13:00,61.7,54.1,29.95,WNW,292,6.0,14.0,76,0.00,,,0.00,meteohub,2013-08-19 10:13:00,
2013-08-19 11:18:00,61.9,53.8,29.95,SW,225,6.0,14.0,75,0.00,,,0.00,meteohub,2013-08-19 10:18:00,
2013-08-19 11:23:00,62.6,54.1,29.95,WNW,292,13.0,15.0,74,0.00,,,0.00,meteohub,2013-08-19 10:23:00,
2013-08-19 11:28:00,62.1,52.9,29.95,WSW,247,8.0,15.0,72,0.00,,,0.00,meteohub,2013-08-19 10:28:00,
2013-08-19 11:34:00,61.9,52.3,29.95,SW,225,9.0,15.0,71,0.00,,,0.00,meteohub,2013-08-19 10:34:00,
2013-08-19 11:39:00,61.7,52.5,29.95,WSW,247,4.0,14.0,72,0.00,,,0.00,meteohub,2013-08-19 10:39:00,
2013-08-19 11:44:00,62.2,53.4,29.95,SSW,202,7.0,17.0,73,0.00,,,0.00,meteohub,2013-08-19 10:44:00,
2013-08-19 11:49:00,62.2,53.1,29.95,WSW,247,13.0,17.0,72,0.00,,,0.00,meteohub,2013-08-19 10:49:00,
2013-08-19 11:54:00,62.2,53.1,29.95,WNW,292,7.0,19.0,72,0.00,,,0.00,meteohub,2013-08-19 10:54:00,
2013-08-19 11:59:00,62.1,52.5,29.95,WSW,247,9.0,19.0,71,0.00,,,0.00,meteohub,2013-08-19 10:59:00,
2013-08-19 12:04:00,62.2,52.7,29.95,WNW,292,7.0,19.0,71,0.00,,,0.00,meteohub,2013-08-19 11:04:00,
2013-08-19 12:09:00,62.2,52.7,29.95,WSW,247,9.0,17.0,71,0.00,,,0.00,meteohub,2013-08-19 11:09:00,
2013-08-19 12:14:00,62.1,52.5,29.95,NW,315,7.0,15.0,71,0.00,,,0.00,meteohub,2013-08-19 11:14:00,
2013-08-19 12:19:00,62.2,52.7,29.95,NW,315,11.0,17.0,71,0.00,,,0.00,meteohub,2013-08-19 11:19:00,
2013-08-19 12:24:00,62.2,52.7,29.95,WSW,247,5.0,17.0,71,0.00,,,0.00,meteohub,2013-08-19 11:24:00,
2013-08-19 12:30:00,62.4,52.9,29.95,WSW,247,8.0,17.0,71,0.00,,,0.00,meteohub,2013-08-19 11:30:00,
2013-08-19 12:35:00,62.2,52.7,29.95,WSW,247,16.0,17.0,71,0.00,,,0.00,meteohub,2013-08-19 11:35:00,
2013-08-19 12:40:00,62.6,53.4,29.98,WSW,247,9.0,22.0,72,0.00,,,0.00,meteohub,2013-08-19 11:40:00,
2013-08-19 12:45:00,62.6,53.1,29.98,SW,225,13.0,22.0,71,0.00,,,0.00,meteohub,2013-08-19 11:45:00,
2013-08-19 12:50:00,62.6,53.1,29.98,WSW,247,7.0,22.0,71,0.00,,,0.00,meteohub,2013-08-19 11:50:00,
2013-08-19 12:55:00,63.1,54.0,29.95,West,270,8.0,18.0,72,0.00,,,0.00,meteohub,2013-08-19 11:55:00,
2013-08-19 13:00:00,63.5,54.3,29.95,NW,315,13.0,17.0,72,0.00,,,0.00,meteohub,2013-08-19 12:00:00,
2013-08-19 13:06:00,63.5,54.0,29.95,SSW,202,6.0,13.0,71,0.00,,,0.00,meteohub,2013-08-19 12:06:00,
2013-08-19 13:11:00,63.3,53.1,29.98,NW,315,10.0,20.0,69,0.00,,,0.00,meteohub,2013-08-19 12:11:00,
2013-08-19 13:16:00,63.1,52.9,29.98,West,270,13.0,20.0,69,0.00,,,0.00,meteohub,2013-08-19 12:16:00,
2013-08-19 13:21:00,63.0,52.7,29.98,WSW,247,11.0,20.0,69,0.00,,,0.00,meteohub,2013-08-19 12:21:00,
2013-08-19 13:26:00,62.8,52.0,29.98,WSW,247,19.0,20.0,68,0.00,,,0.00,meteohub,2013-08-19 12:26:00,
2013-08-19 13:31:00,62.2,52.0,29.98,SW,225,16.0,20.0,69,0.00,,,0.00,meteohub,2013-08-19 12:31:00,
2013-08-19 13:36:00,61.7,51.1,29.98,WNW,292,9.0,23.0,68,0.00,,,0.00,meteohub,2013-08-19 12:36:00,
2013-08-19 13:41:00,61.9,51.3,29.98,NW,315,8.0,23.0,68,0.00,,,0.00,meteohub,2013-08-19 12:41:00,
2013-08-19 13:46:00,62.1,51.4,29.98,WNW,292,6.0,23.0,68,0.00,,,0.00,meteohub,2013-08-19 12:46:00,
2013-08-19 13:51:00,62.1,50.9,29.98,WNW,292,11.0,20.0,67,0.00,,,0.00,meteohub,2013-08-19 12:51:00,
2013-08-19 13:56:00,62.2,51.1,29.98,West,270,13.0,16.0,67,0.00,,,0.00,meteohub,2013-08-19 12:56:00,
2013-08-19 14:01:00,62.1,49.8,29.98,WSW,247,13.0,24.0,64,0.00,,,0.00,meteohub,2013-08-19 13:01:00,
2013-08-19 14:07:00,62.2,50.4,29.98,West,270,11.0,24.0,65,0.00,,,0.00,meteohub,2013-08-19 13:07:00,
2013-08-19 14:12:00,62.2,50.4,29.98,WSW,247,15.0,24.0,65,0.00,,,0.00,meteohub,2013-08-19 13:12:00,
2013-08-19 14:17:00,62.2,48.6,29.98,WNW,292,11.0,31.0,61,0.00,,,0.00,meteohub,2013-08-19 13:17:00,
2013-08-19 14:22:00,62.2,49.5,29.98,NW,315,17.0,31.0,63,0.00,,,0.00,meteohub,2013-08-19 13:22:00,
2013-08-19 14:27:00,62.4,49.6,29.98,West,270,17.0,31.0,63,0.00,,,0.00,meteohub,2013-08-19 13:27:00,
2013-08-19 14:32:00,62.2,48.2,29.98,WNW,292,11.0,29.0,60,0.00,,,0.00,meteohub,2013-08-19 13:32:00,
2013-08-19 14:37:00,61.9,47.8,29.98,WSW,247,5.0,29.0,60,0.00,,,0.00,meteohub,2013-08-19 13:37:00,
2013-08-19 14:42:00,61.9,47.8,29.98,NW,315,6.0,29.0,60,0.00,,,0.00,meteohub,2013-08-19 13:42:00,
2013-08-19 14:47:00,61.9,48.7,29.98,WNW,292,15.0,24.0,62,0.00,,,0.00,meteohub,2013-08-19 13:47:00,
2013-08-19 14:52:00,61.9,48.7,30.01,WSW,247,7.0,19.0,62,0.00,,,0.00,meteohub,2013-08-19 13:52:00,
2013-08-19 14:58:00,61.9,48.7,30.01,WNW,292,7.0,19.0,62,0.00,,,0.00,meteohub,2013-08-19 13:58:00,
2013-08-19 15:03:00,61.7,48.6,30.01,West,270,15.0,19.0,62,0.00,,,0.00,meteohub,2013-08-19 14:03:00,
2013-08-19 15:08:00,61.7,48.6,30.01,WSW,247,6.0,19.0,62,0.00,,,0.00,meteohub,2013-08-19 14:08:00,
2013-08-19 15:13:00,61.9,48.7,30.01,WSW,247,8.0,19.0,62,0.00,,,0.00,meteohub,2013-08-19 14:13:00,
2013-08-19 15:18:00,62.1,49.3,30.01,WSW,247,10.0,19.0,63,0.00,,,0.00,meteohub,2013-08-19 14:18:00,
2013-08-19 15:23:00,62.2,49.5,30.01,SSW,202,15.0,16.0,63,0.00,,,0.00,meteohub,2013-08-19 14:23:00,
2013-08-19 15:28:00,62.4,50.0,30.01,WSW,247,6.0,27.0,64,0.00,,,0.00,meteohub,2013-08-19 14:28:00,
2013-08-19 15:33:00,62.6,49.8,30.01,WSW,247,13.0,27.0,63,0.00,,,0.00,meteohub,2013-08-19 14:33:00,
2013-08-19 15:38:00,62.6,50.2,30.01,SSW,202,6.0,27.0,64,0.00,,,0.00,meteohub,2013-08-19 14:38:00,
2013-08-19 15:43:00,62.4,50.0,30.01,WNW,292,7.0,20.0,64,0.00,,,0.00,meteohub,2013-08-19 14:43:00,
2013-08-19 15:49:00,62.4,50.0,30.01,West,270,17.0,22.0,64,0.00,,,0.00,meteohub,2013-08-19 14:49:00,
2013-08-19 15:54:00,62.2,49.5,30.01,WSW,247,15.0,22.0,63,0.00,,,0.00,meteohub,2013-08-19 14:54:00,
2013-08-19 15:59:00,62.2,48.2,30.01,West,270,13.0,22.0,60,0.00,,,0.00,meteohub,2013-08-19 14:59:00,
2013-08-19 16:04:00,62.2,48.2,30.01,SSW,202,13.0,19.0,60,0.00,,,0.00,meteohub,2013-08-19 15:04:00,
2013-08-19 16:09:00,62.2,48.6,30.01,SSW,202,3.0,19.0,61,0.00,,,0.00,meteohub,2013-08-19 15:09:00,
2013-08-19 16:14:00,62.4,49.3,30.01,WNW,292,5.0,19.0,62,0.00,,,0.00,meteohub,2013-08-19 15:14:00,
2013-08-19 16:20:00,62.6,49.8,30.01,West,270,10.0,16.0,63,0.00,,,0.00,meteohub,2013-08-19 15:20:00,
2013-08-19 16:25:00,62.6,49.5,30.01,WSW,247,13.0,16.0,62,0.00,,,0.00,meteohub,2013-08-19 15:25:00,
2013-08-19 16:30:00,62.4,48.7,30.01,South,180,6.0,19.0,61,0.00,,,0.00,meteohub,2013-08-19 15:30:00,
2013-08-19 16:35:00,62.4,48.7,30.01,SW,225,12.0,19.0,61,0.00,,,0.00,meteohub,2013-08-19 15:35:00,
2013-08-19 16:41:00,62.8,50.0,30.01,WNW,292,21.0,21.0,63,0.00,,,0.00,meteohub,2013-08-19 15:41:00,
2013-08-19 16:46:00,63.0,49.8,30.01,SW,225,12.0,21.0,62,0.00,,,0.00,meteohub,2013-08-19 15:46:00,
2013-08-19 16:51:00,63.1,49.8,30.01,West,270,6.0,21.0,62,0.00,,,0.00,meteohub,2013-08-19 15:51:00,
2013-08-19 16:56:00,63.3,50.5,30.04,WSW,247,9.0,21.0,63,0.00,,,0.00,meteohub,2013-08-19 15:56:00,
2013-08-19 17:01:00,63.3,50.5,30.04,West,270,7.0,16.0,63,0.00,,,0.00,meteohub,2013-08-19 16:01:00,
2013-08-19 17:06:00,63.3,49.6,30.04,WNW,292,11.0,13.0,61,0.00,,,0.00,meteohub,2013-08-19 16:06:00,
2013-08-19 17:11:00,63.0,48.0,30.04,NW,315,10.0,19.0,58,0.00,,,0.00,meteohub,2013-08-19 16:11:00,
2013-08-19 17:17:00,62.8,47.8,30.04,WNW,292,5.0,19.0,58,0.00,,,0.00,meteohub,2013-08-19 16:17:00,
2013-08-19 17:22:00,62.6,47.7,30.01,NNW,337,8.0,19.0,58,0.00,,,0.00,meteohub,2013-08-19 16:22:00,
2013-08-19 17:27:00,62.8,48.7,30.01,SSW,202,11.0,18.0,60,0.00,,,0.00,meteohub,2013-08-19 16:27:00,
2013-08-19 17:32:00,62.6,48.0,30.01,WSW,247,9.0,13.0,59,0.00,,,0.00,meteohub,2013-08-19 16:32:00,
2013-08-19 17:37:00,62.6,48.0,30.04,SW,225,11.0,18.0,59,0.00,,,0.00,meteohub,2013-08-19 16:37:00,
2013-08-19 17:42:00,62.4,48.4,30.04,WSW,247,6.0,18.0,60,0.00,,,0.00,meteohub,2013-08-19 16:42:00,
2013-08-19 17:47:00,62.4,47.8,30.04,WSW,247,5.0,18.0,59,0.00,,,0.00,meteohub,2013-08-19 16:47:00,
2013-08-19 17:52:00,62.4,47.8,30.04,WSW,247,9.0,18.0,59,0.00,,,0.00,meteohub,2013-08-19 16:52:00,
2013-08-19 17:58:00,62.2,48.2,30.04,SW,225,6.0,15.0,60,0.00,,,0.00,meteohub,2013-08-19 16:58:00,
2013-08-19 18:03:00,62.1,48.0,30.04,NNW,337,12.0,15.0,60,0.00,,,0.00,meteohub,2013-08-19 17:03:00,
2013-08-19 18:08:00,61.9,47.5,30.04,WSW,247,11.0,22.0,59,0.00,,,0.00,meteohub,2013-08-19 17:08:00,
2013-08-19 18:13:00,61.7,46.4,30.04,WNW,292,14.0,22.0,57,0.00,,,0.00,meteohub,2013-08-19 17:13:00,
2013-08-19 18:18:00,61.3,46.4,30.04,WNW,292,8.0,23.0,58,0.00,,,0.00,meteohub,2013-08-19 17:18:00,
2013-08-19 18:24:00,61.0,46.0,30.04,SW,225,8.0,23.0,58,0.00,,,0.00,meteohub,2013-08-19 17:24:00,
2013-08-19 18:29:00,61.0,46.0,30.04,NW,315,12.0,23.0,58,0.00,,,0.00,meteohub,2013-08-19 17:29:00,
2013-08-19 18:34:00,60.8,46.4,30.04,WSW,247,10.0,22.0,59,0.00,,,0.00,meteohub,2013-08-19 17:34:00,
2013-08-19 18:39:00,60.6,46.6,30.04,NW,315,11.0,20.0,60,0.00,,,0.00,meteohub,2013-08-19 17:39:00,
2013-08-19 18:44:00,60.4,46.4,30.04,WSW,247,6.0,20.0,60,0.00,,,0.00,meteohub,2013-08-19 17:44:00,
2013-08-19 18:49:00,60.4,46.9,30.04,WNW,292,6.0,15.0,61,0.00,,,0.00,meteohub,2013-08-19 17:49:00,
2013-08-19 18:55:00,60.4,47.3,30.07,SW,225,9.0,16.0,62,0.00,,,0.00,meteohub,2013-08-19 17:55:00,
2013-08-19 19:00:00,60.3,47.7,30.07,SW,225,6.0,16.0,63,0.00,,,0.00,meteohub,2013-08-19 18:00:00,
2013-08-19 19:05:00,60.1,47.5,30.07,WSW,247,6.0,13.0,63,0.00,,,0.00,meteohub,2013-08-19 18:05:00,
2013-08-19 19:10:00,59.9,47.7,30.07,SW,225,10.0,13.0,64,0.00,,,0.00,meteohub,2013-08-19 18:10:00,
2013-08-19 19:15:00,59.7,47.5,30.07,West,270,6.0,13.0,64,0.00,,,0.00,meteohub,2013-08-19 18:15:00,
2013-08-19 19:20:00,59.5,47.3,30.07,SW,225,6.0,11.0,64,0.00,,,0.00,meteohub,2013-08-19 18:20:00,
2013-08-19 19:25:00,59.4,47.1,30.07,WNW,292,2.0,11.0,64,0.00,,,0.00,meteohub,2013-08-19 18:25:00,
2013-08-19 19:30:00,59.2,46.9,30.07,WSW,247,4.0,11.0,64,0.00,,,0.00,meteohub,2013-08-19 18:30:00,
2013-08-19 19:35:00,59.2,47.5,30.07,West,270,4.0,11.0,65,0.00,,,0.00,meteohub,2013-08-19 18:35:00,
2013-08-19 19:40:00,59.0,47.7,30.07,WSW,247,3.0,9.0,66,0.00,,,0.00,meteohub,2013-08-19 18:40:00,
2013-08-19 19:46:00,58.8,47.8,30.07,NNW,337,3.0,8.0,67,0.00,,,0.00,meteohub,2013-08-19 18:46:00,
2013-08-19 19:51:00,58.6,47.7,30.07,West,270,4.0,12.0,67,0.00,,,0.00,meteohub,2013-08-19 18:51:00,
2013-08-19 19:56:00,58.5,48.0,30.07,WSW,247,8.0,12.0,68,0.00,,,0.00,meteohub,2013-08-19 18:56:00,
2013-08-19 20:01:00,58.5,48.0,30.07,WNW,292,10.0,12.0,68,0.00,,,0.00,meteohub,2013-08-19 19:01:00,
2013-08-19 20:06:00,58.3,47.8,30.07,WNW,292,4.0,11.0,68,0.00,,,0.00,meteohub,2013-08-19 19:06:00,
2013-08-19 20:11:00,58.3,48.2,30.07,WNW,292,5.0,13.0,69,0.00,,,0.00,meteohub,2013-08-19 19:11:00,
2013-08-19 20:16:00,58.1,48.0,30.07,WSW,247,3.0,13.0,69,0.00,,,0.00,meteohub,2013-08-19 19:16:00,
2013-08-19 20:22:00,57.9,48.2,30.10,West,270,6.0,13.0,70,0.00,,,0.00,meteohub,2013-08-19 19:22:00,
2013-08-19 20:27:00,57.9,48.2,30.10,WNW,292,4.0,13.0,70,0.00,,,0.00,meteohub,2013-08-19 19:27:00,
2013-08-19 20:32:00,57.9,48.6,30.10,WSW,247,4.0,10.0,71,0.00,,,0.00,meteohub,2013-08-19 19:32:00,
2013-08-19 20:37:00,57.6,48.2,30.10,NW,315,8.0,13.0,71,0.00,,,0.00,meteohub,2013-08-19 19:37:00,
2013-08-19 20:42:00,57.6,48.2,30.10,WNW,292,5.0,13.0,71,0.00,,,0.00,meteohub,2013-08-19 19:42:00,
2013-08-19 20:47:00,57.6,48.2,30.10,WNW,292,5.0,13.0,71,0.00,,,0.00,meteohub,2013-08-19 19:47:00,
2013-08-19 20:52:00,57.2,48.2,30.10,WSW,247,7.0,8.0,72,0.00,,,0.00,meteohub,2013-08-19 19:52:00,
2013-08-19 20:57:00,57.2,47.8,30.10,SW,225,6.0,10.0,71,0.00,,,0.00,meteohub,2013-08-19 19:57:00,
2013-08-19 21:02:00,57.0,47.7,30.10,SW,225,6.0,11.0,71,0.00,,,0.00,meteohub,2013-08-19 20:02:00,
2013-08-19 21:08:00,56.8,47.5,30.10,SSW,202,9.0,13.0,71,0.00,,,0.00,meteohub,2013-08-19 20:08:00,
2013-08-19 21:14:00,56.8,47.5,30.10,WNW,292,11.0,13.0,71,0.00,,,0.00,meteohub,2013-08-19 20:14:00,
2013-08-19 21:19:00,56.7,47.3,30.10,NNW,337,6.0,13.0,71,0.00,,,0.00,meteohub,2013-08-19 20:19:00,
2013-08-19 21:25:00,56.7,47.7,30.10,WSW,247,6.0,13.0,72,0.00,,,0.00,meteohub,2013-08-19 20:25:00,
2013-08-19 21:30:00,56.5,47.5,30.10,SW,225,5.0,13.0,72,0.00,,,0.00,meteohub,2013-08-19 20:30:00,
2013-08-19 21:35:00,56.5,47.5,30.10,West,270,4.0,10.0,72,0.00,,,0.00,meteohub,2013-08-19 20:35:00,
2013-08-19 21:40:00,56.3,47.5,30.10,WNW,292,2.0,9.0,72,0.00,,,0.00,meteohub,2013-08-19 20:40:00,
2013-08-19 21:46:00,56.3,47.5,30.10,WSW,247,3.0,8.0,72,0.00,,,0.00,meteohub,2013-08-19 20:46:00,
2013-08-19 21:51:00,56.1,47.7,30.10,NW,315,4.0,9.0,73,0.00,,,0.00,meteohub,2013-08-19 20:51:00,
2013-08-19 21:56:00,55.9,47.5,30.10,WSW,247,1.0,9.0,73,0.00,,,0.00,meteohub,2013-08-19 20:56:00,
2013-08-19 22:01:00,55.8,47.3,30.10,WSW,247,3.0,9.0,73,0.00,,,0.00,meteohub,2013-08-19 21:01:00,
2013-08-19 22:06:00,55.9,47.5,30.10,WSW,247,2.0,6.0,73,0.00,,,0.00,meteohub,2013-08-19 21:06:00,
2013-08-19 22:12:00,55.6,47.5,30.10,NW,315,3.0,6.0,74,0.00,,,0.00,meteohub,2013-08-19 21:12:00,
2013-08-19 22:17:00,55.4,47.3,30.10,West,270,0.0,6.0,74,0.00,,,0.00,meteohub,2013-08-19 21:17:00,
2013-08-19 22:22:00,55.4,47.3,30.13,WSW,247,2.0,6.0,74,0.00,,,0.00,meteohub,2013-08-19 21:22:00,
2013-08-19 22:27:00,55.2,47.5,30.13,WNW,292,1.0,6.0,75,0.00,,,0.00,meteohub,2013-08-19 21:27:00,
2013-08-19 22:32:00,55.2,47.5,30.13,WNW,292,1.0,4.0,75,0.00,,,0.00,meteohub,2013-08-19 21:32:00,
2013-08-19 22:37:00,54.9,47.1,30.13,WNW,292,1.0,4.0,75,0.00,,,0.00,meteohub,2013-08-19 21:37:00,
2013-08-19 22:42:00,54.9,47.5,30.13,West,270,2.0,4.0,76,0.00,,,0.00,meteohub,2013-08-19 21:42:00,
2013-08-19 22:47:00,54.7,47.7,30.13,West,270,2.0,4.0,77,0.00,,,0.00,meteohub,2013-08-19 21:47:00,
2013-08-19 22:52:00,54.7,47.7,30.13,West,270,3.0,4.0,77,0.00,,,0.00,meteohub,2013-08-19 21:52:00,
2013-08-19 22:58:00,54.7,48.0,30.13,WNW,292,0.0,4.0,78,0.00,,,0.00,meteohub,2013-08-19 21:58:00,
2013-08-19 23:03:00,54.5,48.2,30.13,WSW,247,3.0,4.0,79,0.00,,,0.00,meteohub,2013-08-19 22:03:00,
2013-08-19 23:08:00,54.5,48.2,30.13,SSW,202,4.0,4.0,79,0.00,,,0.00,meteohub,2013-08-19 22:08:00,
2013-08-19 23:14:00,54.5,48.2,30.13,SW,225,4.0,4.0,79,0.00,,,0.00,meteohub,2013-08-19 22:14:00,
2013-08-19 23:19:00,54.5,48.4,30.13,SW,225,3.0,5.0,80,0.00,,,0.00,meteohub,2013-08-19 22:19:00,
2013-08-19 23:24:00,54.5,48.4,30.13,SW,225,4.0,6.0,80,0.00,,,0.00,meteohub,2013-08-19 22:24:00,
2013-08-19 23:29:00,54.5,48.4,30.13,WSW,247,4.0,6.0,80,0.00,,,0.00,meteohub,2013-08-19 22:29:00,
2013-08-19 23:34:00,54.5,48.7,30.13,SW,225,8.0,13.0,81,0.00,,,0.00,meteohub,2013-08-19 22:34:00,
2013-08-19 23:39:00,54.5,48.7,30.13,WSW,247,4.0,13.0,81,0.00,,,0.00,meteohub,2013-08-19 22:39:00,
2013-08-19 23:45:00,54.3,48.6,30.13,WSW,247,10.0,13.0,81,0.00,,,0.00,meteohub,2013-08-19 22:45:00,
2013-08-19 23:50:00,54.3,48.9,30.13,WNW,292,5.0,10.0,82,0.00,,,0.00,meteohub,2013-08-19 22:50:00,
2013-08-19 23:55:00,54.3,48.9,30.13,West,270,2.0,10.0,82,0.00,,,0.00,meteohub,2013-08-19 22:55:00,